Dewpoint
17 17 18 18 19 20 22 22 21 17 18 19 20 23 25 25 25 28 31 31 34 36 40 44 47 59 60 60 60 60 60 59 59 59 58 57 56 55
15 16 16 17 18 18 19 20 21 20 17 19 20 21 22 24 27 28 29 30 31 34 34 38 44 46 58 58 59 59 60 60 60 59 59 58 57 56
15 15 16 16 17 17 18 19 19 20 18 19 21 21 22 22 22 24 27 31 30 29 31 33 40 45 46 57 58 59 59 59 59 59 59 59 57 56
15 15 15 15 16 17 17 18 18 19 19 18 20 21 20 22 25 23 22 25 29 28 29 33 35 37 43 46 57 58 58 58 59 59 58 58 57 56
15 15 15 16 16 16 17 17 18 18 19 19 18 20 20 21 21 23 24 25 27 28 29 37 42 43 45 44 50 57 57 57 58 58 57 58 57 57
15 16 17 18 18 18 19 19 18 18 19 19 19 20 22 21 21 23 24 25 27 27 28 28 31 32 44 45 49 56 56 56 57 57 57 57 57 56
17 18 19 19 21 25 24 25 25 23 22 21 22 22 23 24 22 24 22 23 24 27 28 30 35 38 38 41 42 55 55 56 56 56 56 56 56 55
17 19 20 17 18 18 18 20 22 24 24 24 23 23 24 22 20 20 22 23 23 27 28 27 30 32 33 36 37 40 50 55 55 55 55 55 55 55
15 16 19 15 14 16 17 18 19 19 19 19 20 21 20 20 19 19 19 20 20 22 24 23 26 29 33 34 36 38 40 49 54 54 55 54 55 54
14 14 14 16 17 18 19 20 21 21 22 21 20 20 19 19 19 18 18 18 20 21 22 22 24 25 30 33 33 35 37 40 51 54 54 54 54 53
13 14 16 17 19 19 18 20 22 24 26 25 24 26 27 29 29 28 25 24 22 23 25 24 25 26 28 31 35 36 36 38 40 52 53 53 53 53
13 15 16 15 18 20 18 20 20 20 20 21 22 21 21 21 21 21 22 22 22 22 23 23 23 25 27 32 31 34 42 44 43 48 53 53 52 53
14 17 19 15 14 16 20 21 23 21 20 21 21 22 22 22 21 22 22 21 19 19 20 21 23 26 25 25 27 30 35 36 39 44 52 53 52 53
18 17 17 16 18 20 19 22 24 20 18 18 18 19 20 21 25 25 25 24 24 23 23 24 23 24 23 23 24 27 28 33 34 34 39 53 52 52
15 19 20 16 15 20 21 15 15 16 16 17 17 17 18 20 22 23 24 27 29 27 26 26 26 26 26 25 25 25 25 29 32 33 35 42 52 51
17 18 17 22 16 14 14 13 13 14 14 16 17 18 19 19 18 18 18 20 21 21 23 28 28 26 25 24 25 25 27 29 33 35 36 37 40 52
17 21 16 13 12 12 12 12 12 13 13 14 15 16 16 16 17 17 18 19 18 18 18 20 22 24 25 25 24 24 25 27 29 31 33 34 35 42
19 13 11 11 11 11 11 11 12 13 13 14 15 15 16 16 16 17 18 18 18 17 18 19 19 20 23 26 27 25 25 25 28 33 35 35 33 37
11 10 9 9 10 11 11 11 12 12 13 14 14 15 15 15 15 16 17 18 17 17 16 16 18 19 19 18 21 29 26 25 27 28 32 36 35 38
7 8 8 9 9 10 10 11 12 12 12 13 14 15 15 15 15 15 16 16 16 17 17 17 17 17 19 18 18 20 27 27 28 28 31 34 37 38
6 7 8 9 9 10 11 11 12 12 12 14 15 15 15 15 14 14 14 14 17 18 17 16 16 17 19 21 20 21 24 25 31 32 32 33 34 36
6 7 7 8 9 10 10 10 11 11 11 12 12 13 13 13 14 14 14 15 16 15 15 17 18 17 18 20 20 19 21 24 26 34 36 36 34 32
5 7 7 8 8 9 10 10 11 11 12 12 12 12 13 13 14 14 14 16 17 16 16 17 17 21 18 17 18 20 22 25 25 28 35 38 39 38
Wind_Speed
12 13 13 14 13 14 15 16 19 27 27 25 23 17 20 23 30 31 28 32 37 37 34 37 37 39 41 41 44 43 42 39 39 39 39 36 36 37
13 13 14 13 15 15 16 16 18 22 31 21 28 26 24 23 24 27 29 35 34 34 36 35 35 37 37 41 40 42 41 39 40 40 40 39 39 39
13 14 17 15 16 17 16 17 19 20 27 23 24 27 28 26 27 24 25 26 27 32 36 36 36 36 35 37 41 41 42 41 42 42 42 42 41 41
16 16 18 16 19 18 18 20 20 21 24 30 23 26 30 25 24 27 26 26 27 31 34 34 38 40 40 33 40 43 43 42 43 43 43 43 43 41
18 18 20 18 21 20 20 22 21 21 23 25 26 21 28 24 26 23 23 23 24 29 32 25 27 31 34 37 41 42 43 45 45 43 44 43 44 43
20 20 22 21 24 24 23 25 25 25 24 25 26 24 21 28 24 24 25 19 20 21 28 29 33 37 33 31 43 40 42 44 45 45 44 43 43 44
21 21 22 25 30 30 26 24 22 21 22 23 25 23 21 20 25 20 26 25 23 20 23 20 17 17 21 26 33 35 41 45 47 48 47 46 45 44
23 21 20 28 27 32 34 35 32 28 27 26 26 27 25 26 28 27 25 25 26 12 16 25 21 24 22 24 29 37 37 46 46 48 49 48 47 46
23 24 22 21 27 24 28 34 35 36 37 32 31 29 29 26 25 31 30 27 29 24 24 31 21 27 21 24 31 34 36 37 47 49 48 49 49 47
22 24 25 25 24 27 27 29 30 30 30 27 29 31 28 27 25 27 33 30 28 26 21 33 20 28 21 24 35 35 34 34 40 47 47 48 49 48
22 23 24 26 29 33 30 30 31 30 25 34 38 41 41 41 36 26 27 26 30 26 17 25 22 24 22 27 26 31 31 35 42 40 45 46 46 45
23 24 28 30 33 33 29 27 29 29 28 28 27 30 33 32 37 32 25 30 29 29 21 25 25 24 15 13 16 14 15 19 28 39 46 46 46 37
23 23 18 29 33 35 36 29 29 31 33 32 31 31 28 26 26 25 27 29 27 31 25 26 25 21 26 29 27 25 18 25 25 23 43 46 47 44
23 21 22 33 36 37 36 36 38 37 27 26 26 26 24 24 23 22 25 28 28 34 27 25 25 24 26 29 32 21 19 22 23 25 29 35 44 46
22 27 35 36 37 35 25 34 35 25 25 26 26 27 25 24 22 22 23 25 28 32 29 30 28 26 25 30 29 25 26 22 20 21 22 25 28 29
26 24 30 28 27 28 26 22 20 20 22 23 24 22 22 21 23 21 23 23 25 30 26 24 27 27 30 32 29 32 25 21 9 16 17 23 26 28
30 21 15 17 19 20 19 20 20 20 21 22 23 24 24 23 24 21 22 22 27 29 28 24 25 29 31 34 34 31 29 29 25 26 19 27 26 27
21 16 19 18 19 20 21 22 21 24 23 23 23 23 24 24 24 23 22 24 28 28 28 26 23 25 26 32 38 34 28 30 27 21 17 23 27 27
15 18 19 19 21 22 22 23 25 24 24 24 25 25 25 25 28 26 25 25 29 29 30 26 25 25 29 34 27 37 35 31 26 24 24 23 24 27
14 17 20 21 22 23 24 24 26 25 25 25 25 26 26 26 27 27 27 29 30 30 29 27 28 29 32 36 33 28 34 32 26 27 24 21 21 19
20 19 19 21 23 24 25 25 26 27 28 27 27 28 28 27 29 30 31 39 37 30 33 34 33 35 30 29 32 32 26 30 31 29 25 24 22 20
20 21 23 23 24 25 26 26 27 28 29 29 29 29 30 30 32 34 34 36 34 32 34 32 27 28 31 32 34 34 29 25 28 33 35 31 19 19
21 22 24 25 26 26 27 27 29 30 31 32 33 33 33 34 35 36 38 39 37 35 33 32 30 27 32 33 37 31 30 27 23 25 24 29 42 33
Wind_Direction
284 285 280 281 280 279 279 282 287 293 291 300 302 305 313 315 310 312 312 313 313 310 312 314 328 271 240 226 221 221 220 217 213 209 208 208 206 213
285 280 279 284 287 282 278 276 274 278 283 286 292 297 301 303 303 309 305 306 305 308 307 303 311 321 261 237 223 218 216 216 214 211 209 207 207 210
279 279 281 283 281 281 277 275 274 273 279 284 284 294 296 300 298 294 298 302 300 299 298 302 302 309 316 252 229 216 216 214 212 210 209 209 208 210
285 281 277 280 277 276 277 275 273 273 276 284 283 289 290 291 295 299 292 292 294 296 296 300 295 291 293 308 243 223 212 214 212 209 210 209 211 208
277 276 275 274 274 274 273 273 272 272 272 276 282 278 283 288 291 287 287 288 288 292 290 303 302 299 294 293 284 226 217 210 211 208 207 208 211 210
272 271 273 270 269 272 270 266 266 266 266 267 272 273 270 281 279 285 288 285 293 299 298 295 289 285 297 315 292 223 223 215 208 207 207 208 209 210
276 274 273 272 273 274 276 276 271 263 263 263 272 274 272 267 277 278 283 287 285 287 287 287 284 299 296 304 323 234 222 220 211 211 209 207 208 207
282 281 279 282 282 282 280 280 278 276 273 273 275 277 277 266 268 281 281 281 283 275 294 298 300 291 294 289 305 295 283 220 215 211 211 208 208 208
284 283 284 282 284 282 281 281 281 279 277 277 275 274 277 275 278 284 279 280 282 285 290 287 290 289 291 295 295 291 282 278 216 217 210 208 207 207
284 279 277 277 275 276 275 273 270 266 263 265 264 267 266 267 264 264 272 276 276 275 268 273 282 275 282 281 283 283 282 280 253 215 213 211 209 208
283 278 275 273 274 278 279 277 274 270 269 271 274 271 270 266 259 255 255 264 269 266 260 267 276 282 285 278 275 277 278 274 268 234 215 212 212 210
281 276 276 281 283 286 285 284 282 281 280 276 271 270 269 266 266 267 269 272 276 282 270 267 274 278 288 266 261 260 275 282 316 255 221 212 211 209
283 282 281 288 288 287 285 281 278 280 278 277 271 266 264 261 256 249 246 250 262 264 265 260 264 264 268 278 285 288 293 301 292 317 224 213 211 209
288 288 285 286 285 287 288 288 290 294 291 286 282 279 277 269 261 255 251 248 248 252 257 255 258 255 260 267 272 280 282 281 285 291 304 227 214 210
286 280 288 291 290 294 291 294 294 292 286 282 278 276 274 274 273 270 260 251 253 259 258 250 249 253 254 262 269 273 282 274 273 274 278 296 220 211
286 287 283 288 302 294 296 292 285 281 279 277 276 278 279 274 268 266 267 262 263 265 256 249 251 251 255 256 257 263 258 262 289 282 284 281 305 216
298 292 312 304 301 295 292 288 287 286 282 279 277 276 275 273 268 265 261 259 255 260 263 255 249 250 249 252 257 254 261 261 259 265 273 270 272 292
305 323 305 297 293 294 293 291 289 286 280 279 277 274 273 272 270 265 259 253 254 255 257 256 252 253 255 250 240 252 249 253 261 264 249 250 267 268
316 299 289 288 288 290 289 288 285 282 282 278 276 275 273 272 271 267 262 256 252 251 252 253 250 245 249 251 249 229 242 246 247 244 246 244 247 262
289 283 286 288 286 287 288 285 284 284 282 278 276 272 270 267 267 262 259 257 254 250 251 248 244 240 239 244 250 246 231 240 241 244 240 246 246 253
293 290 286 285 286 285 284 283 282 281 280 277 273 269 267 266 262 259 257 259 250 251 252 248 242 241 243 248 253 251 245 243 239 234 231 233 236 239
288 289 291 289 286 283 283 283 283 282 280 278 275 270 266 263 260 257 256 252 248 251 253 254 243 234 237 240 242 246 246 243 245 247 231 217 211 222
288 288 289 288 287 287 287 286 284 282 279 278 275 271 267 263 256 254 255 248 247 248 247 249 240 230 229 231 237 243 241 234 237 244 255 241 230 236